Weather History for Milton, FL

Change the Weather History Date:

Tuesday, November 15, 2011

  Actual Average (KNSE) Record (KNSE)
Temperature  
Mean Temperature 73 °F -  
Max Temperature 78 °F 67 °F 81 °F (2005)
Min Temperature 68 °F 49 °F 30 °F (2014)
Cooling Degree Days 8    
Growing Degree Days 23 (Base 50)    
Moisture  
Dew Point 70 °F    
Average Humidity 91    
Maximum Humidity 100    
Minimum Humidity 74    
Precipitation  
Precipitation 0.37 in - - ()
Sea Level Pressure  
Sea Level Pressure 29.92 in    
Wind  
Wind Speed 6 mph (SSE)    
Max Wind Speed 17 mph    
Max Gust Speed 22 mph    
Visibility 9 miles    
Events Rain    
Averages and records for this station are not official NWS values.
T = Trace of Precipitation, MM = Missing Value Source: NWS Daily Summary

Daily Weather History Graph

Daily Weather History Graph

Search for Another Location

Airport:

Trip Planner

Search our weather history database for the weather conditions in past years. The results will help you decide how hot, cold, wet, or windy it might be!

Date:

Astronomy

Nov. 15, 2011 Rise Set
Actual Time 6:14 AM CST 4:50 PM CST
Civil Twilight 5:48 AM CST 5:16 PM CST
Nautical Twilight 5:19 AM CST 5:45 PM CST
Astronomical Twilight 4:50 AM CST 6:14 PM CST
Moon 9:00 PM CST (11/15) 10:11 AM CST (11/15)
Length of Visible Light 11h 27m
Length of Day
10h 36m
Waning Gibbous, 79% of the Moon is Illuminated
Nov 15
Waning Gibbous
Nov 18
Last Quarter
Nov 25
New
Dec 2
First Quarter
Dec 10
Full

Hourly Weather History & Observations

Time (CST) Temp. Dew Point Humidity Pressure Visibility Wind Dir Wind Speed Gust Speed Precip Events Conditions
12:14 AM 68.0 °F 66.2 °F 94% 30.01 in 9.0 mi SSE 4.6 mph - N/A   Overcast
12:22 AM 68.0 °F 66.2 °F 94% 30.01 in 10.0 mi SSE 3.5 mph - N/A   Overcast
12:41 AM 68.0 °F 66.2 °F 94% 30.00 in 10.0 mi SE 3.5 mph - N/A   Overcast
12:56 AM 69.1 °F 66.9 °F 93% 29.96 in 10.0 mi SE 5.8 mph - N/A   Overcast
1:56 AM 68.0 °F 66.9 °F 96% 29.94 in 7.0 mi SSE 3.5 mph - N/A   Overcast
2:56 AM 68.0 °F 66.9 °F 96% 29.93 in 6.0 mi SSE 5.8 mph - N/A   Overcast
3:56 AM 68.0 °F 66.9 °F 96% 29.92 in 9.0 mi SSE 5.8 mph - N/A   Overcast
4:56 AM 69.1 °F 68.0 °F 96% 29.93 in 8.0 mi SSE 3.5 mph - N/A   Overcast
5:56 AM 70.0 °F 68.0 °F 93% 29.94 in 6.0 mi ESE 4.6 mph - N/A   Overcast
7:56 AM 71.1 °F 70.0 °F 96% 29.96 in 4.0 mi SE 8.1 mph - 0.01 in Rain Light Rain
8:52 AM 73.4 °F 71.6 °F 94% 30.00 in 10.0 mi SSE 8.1 mph - 0.00 in   Overcast
8:56 AM 73.9 °F 71.1 °F 91% 29.96 in 10.0 mi SSE 8.1 mph - 0.00 in   Overcast
9:56 AM 73.9 °F 72.0 °F 93% 29.96 in 10.0 mi South 4.6 mph - 0.01 in   Overcast
10:52 AM 75.2 °F 71.6 °F 89% 29.99 in 10.0 mi SSE 8.1 mph - 0.00 in   Overcast
10:56 AM 75.9 °F 72.0 °F 87% 29.95 in 10.0 mi South 6.9 mph - 0.00 in   Overcast
11:56 AM 75.9 °F 71.1 °F 85% 29.93 in 10.0 mi SSE 13.8 mph - N/A   Overcast
12:56 PM 78.1 °F 71.1 °F 79% 29.89 in 10.0 mi SSE 16.1 mph 20.7 mph N/A   Overcast
1:56 PM 78.1 °F 71.1 °F 79% 29.88 in 10.0 mi South 12.7 mph 18.4 mph N/A   Overcast
2:13 PM 78.8 °F 69.8 °F 74% 29.92 in 10.0 mi SSE 17.3 mph 21.9 mph N/A   Overcast
2:52 PM 77.0 °F 69.8 °F 78% 29.90 in 10.0 mi SSE 13.8 mph - N/A   Overcast
2:56 PM 77.0 °F 70.0 °F 79% 29.86 in 10.0 mi South 11.5 mph 19.6 mph N/A   Overcast
3:56 PM 75.0 °F 70.0 °F 84% 29.86 in 10.0 mi SSE 8.1 mph - N/A   Overcast
4:56 PM 75.0 °F 71.1 °F 87% 29.87 in 10.0 mi South 5.8 mph - 0.00 in   Overcast
5:07 PM 73.4 °F 71.6 °F 94% 29.91 in 10.0 mi SSE 8.1 mph - 0.00 in Rain Light Rain
5:56 PM 73.9 °F 72.0 °F 93% 29.88 in 10.0 mi South 4.6 mph - 0.00 in   Overcast
6:35 PM 73.4 °F 71.6 °F 94% 29.92 in 10.0 mi SSE 5.8 mph - 0.00 in   Overcast
6:54 PM 73.4 °F 71.6 °F 94% 29.92 in 10.0 mi South 4.6 mph - 0.00 in   Overcast
6:56 PM 73.9 °F 72.0 °F 93% 29.88 in 10.0 mi South 5.8 mph - 0.00 in   Overcast
7:27 PM 73.4 °F 71.6 °F 94% 29.92 in 10.0 mi SSE 5.8 mph - N/A   Overcast
7:43 PM 73.4 °F 71.6 °F 94% 29.92 in 10.0 mi SSE 6.9 mph - N/A   Overcast
7:56 PM 73.9 °F 72.0 °F 93% 29.88 in 10.0 mi South 5.8 mph - N/A   Overcast
8:56 PM 73.9 °F 72.0 °F 93% 29.87 in 8.0 mi SSE 8.1 mph - N/A   Overcast
9:37 PM 69.8 °F 69.8 °F 100% 29.92 in 3.0 mi SSW 3.5 mph - 0.35 in Rain Light Rain
9:56 PM 71.1 °F 69.1 °F 93% 29.88 in 10.0 mi SSW 4.6 mph - 0.35 in Rain Light Rain
10:14 PM 71.6 °F 69.8 °F 94% 29.91 in 10.0 mi SSW 3.5 mph - 0.00 in Rain Light Rain
10:49 PM 71.6 °F 69.8 °F 94% 29.91 in 10.0 mi SSW 8.1 mph - 0.00 in   Overcast
10:56 PM 71.1 °F 69.1 °F 93% 29.87 in 10.0 mi South 6.9 mph - 0.00 in   Mostly Cloudy
11:03 PM 71.6 °F 69.8 °F 94% 29.91 in 10.0 mi South 5.8 mph - N/A   Overcast
11:11 PM 71.6 °F 69.8 °F 94% 29.91 in 10.0 mi SSW 5.8 mph - N/A   Overcast
11:29 PM 71.6 °F 69.8 °F 94% 29.91 in 10.0 mi South 6.9 mph - N/A   Overcast
11:42 PM 71.6 °F 69.8 °F 94% 29.91 in 8.0 mi South 6.9 mph - N/A   Mostly Cloudy
11:56 PM 70.0 °F 69.1 °F 97% 29.86 in 7.0 mi South 4.6 mph - N/A   Scattered Clouds